Dewpoint
74 75 75 75 76 76 76 76 76 76 76 76 76 77 77 77 78 77 77 77 77 77 77 77 77 77 77 77 76 75 75 76 76 76 75 75 74 74 74 75 75 75 74 74 74 74 74 75 75 74 74 73 74 74 73 74 74 73 73 73 73 73 73 74 74 73 75 74 74 74 73 73 74 73 73 73 73 73 74 73 73 69 72 73 74
74 74 74 75 76 75 76 76 76 76 76 76 76 77 77 77 77 77 77 77 77 77 77 77 77 77 76 76 75 76 76 75 75 75 75 75 74 74 75 75 75 75 74 74 74 74 74 74 74 74 74 74 74 74 74 74 73 73 73 73 73 73 73 73 73 74 74 75 75 74 74 73 73 73 73 73 73 73 72 70 69 70 72 74 74
72 75 75 75 75 75 76 76 76 76 76 76 76 77 77 77 77 77 77 77 77 77 77 77 77 76 76 76 75 76 75 75 75 75 75 74 74 74 74 75 75 75 75 75 74 74 74 74 74 74 74 74 74 74 74 74 73 73 73 73 73 73 74 74 73 74 74 74 74 74 73 73 73 73 73 73 73 73 72 71 71 72 72 74 74
73 73 75 75 75 75 76 76 76 76 76 76 77 77 77 77 76 77 77 77 77 77 77 77 76 76 76 76 76 76 76 75 75 75 74 74 74 74 74 74 74 74 74 74 75 75 75 74 74 73 74 74 74 74 74 74 73 73 73 74 73 73 74 73 73 74 74 74 74 73 72 72 73 73 73 73 73 72 72 72 72 73 74 74 73
73 73 74 75 76 75 75 75 76 76 76 77 77 77 77 76 76 77 77 77 77 77 76 76 76 76 76 76 76 75 75 75 74 74 74 74 74 74 75 74 74 74 74 74 75 75 74 74 74 74 74 74 75 74 74 74 73 74 73 74 74 74 74 73 74 73 73 74 74 73 72 71 71 72 72 72 72 72 72 72 72 72 73 73 74
71 72 72 73 74 75 76 76 76 77 77 76 76 77 76 76 77 77 77 77 77 76 76 76 76 76 76 76 75 75 75 75 74 74 74 74 74 74 74 74 75 74 74 74 74 74 74 75 75 75 75 75 75 75 74 74 74 73 73 73 73 73 73 73 74 74 74 73 74 72 72 71 70 70 72 72 72 72 72 72 72 72 72 74 74
72 72 71 71 72 74 76 76 76 76 76 76 76 76 76 77 77 77 77 77 77 76 76 76 76 76 76 76 75 75 75 75 75 74 75 74 74 74 74 74 74 74 74 74 74 74 74 74 74 74 74 74 74 74 74 74 74 73 74 74 74 74 74 73 73 72 72 73 72 71 69 71 71 70 73 73 72 73 73 73 72 72 72 72 73
71 72 70 71 72 75 76 75 76 76 76 76 76 76 76 76 76 77 77 77 76 76 76 76 76 76 76 76 75 75 75 75 75 75 75 75 74 74 74 74 74 74 74 74 74 74 73 74 74 74 74 74 74 74 74 74 74 74 73 74 74 74 74 73 73 72 70 73 72 72 70 70 71 70 73 73 72 72 73 72 72 73 72 72 72
70 70 70 70 73 76 75 76 76 76 76 76 77 76 76 76 77 77 77 76 76 76 76 76 76 76 76 76 76 75 75 75 74 74 75 74 74 74 74 75 75 74 74 74 74 74 73 73 73 74 74 73 74 74 74 74 74 74 74 74 74 73 73 73 72 72 70 73 73 72 71 70 71 71 73 73 72 72 72 72 73 73 72 72 71
69 70 70 71 73 76 76 76 76 76 76 77 77 77 77 77 77 77 77 76 76 76 76 76 76 76 76 76 76 76 75 75 75 75 75 74 74 75 74 74 75 74 74 74 74 74 74 73 74 74 74 74 74 74 74 74 74 74 73 74 75 74 73 72 70 69 72 73 73 73 74 74 72 70 72 73 73 73 73 72 73 72 73 73 72
69 70 70 71 72 76 76 76 76 76 76 77 77 76 76 76 77 77 76 76 76 76 76 76 76 76 76 76 76 75 75 75 75 75 74 74 74 74 74 74 74 74 74 74 75 74 74 74 74 74 73 74 74 73 73 74 74 74 74 74 74 74 73 73 71 70 72 74 73 72 71 74 73 72 74 74 72 72 73 73 73 73 72 73 73
68 70 71 72 76 76 75 76 76 76 76 76 76 76 76 76 76 76 76 76 76 76 76 76 76 76 76 76 76 75 75 75 74 74 74 74 74 74 74 75 75 75 75 75 75 75 74 74 74 74 74 74 74 73 74 74 74 74 74 74 74 74 74 74 70 69 71 73 73 71 71 72 73 72 73 73 73 73 73 73 73 73 73 73 73
68 69 69 72 72 75 75 75 76 76 76 76 76 76 76 76 76 76 76 76 76 76 76 76 76 76 76 76 76 75 75 74 74 74 74 74 74 74 74 74 74 75 75 75 75 75 75 75 74 74 74 74 74 74 74 74 74 74 74 74 74 75 74 73 70 69 69 73 73 73 72 73 72 73 74 73 73 74 73 73 73 73 73 73 73
68 69 70 69 72 75 75 75 75 76 76 76 76 76 76 76 76 76 76 76 76 76 76 76 76 76 76 76 76 75 75 74 74 74 74 74 74 74 74 74 74 74 75 75 75 75 74 75 74 74 74 74 74 74 74 74 74 74 74 74 74 74 73 71 70 70 69 69 72 72 74 73 73 73 73 74 74 74 74 73 72 73 73 73 73
67 68 68 70 72 73 75 75 75 76 76 76 76 76 76 76 76 76 76 76 77 76 76 76 76 76 76 76 75 75 74 74 74 74 74 74 74 74 74 75 74 74 74 75 75 75 74 74 75 75 75 74 74 74 74 74 74 74 74 74 75 74 74 74 73 70 70 70 69 70 73 73 74 73 73 73 73 73 73 73 73 72 73 73 73
67 67 69 71 72 74 74 75 75 75 75 76 76 76 76 76 76 76 76 76 76 76 77 76 76 76 76 76 75 75 75 74 74 74 74 74 74 74 74 75 75 74 74 75 75 75 75 75 74 75 75 75 75 74 74 74 75 75 74 74 74 74 73 74 72 70 68 69 70 71 72 72 74 73 73 73 73 73 73 72 72 72 73 72 72
67 69 69 71 72 73 72 74 74 75 76 76 76 76 76 76 76 76 76 77 76 76 76 76 76 76 76 75 75 75 75 75 75 75 74 74 74 74 74 74 75 74 74 74 74 74 74 75 75 75 75 75 74 75 75 75 75 75 75 75 74 74 73 74 72 71 67 70 71 69 73 73 73 73 73 73 73 73 73 72 72 72 72 73 73
68 69 70 71 72 71 71 71 74 75 75 76 76 76 76 76 77 76 76 76 77 77 76 77 76 76 75 75 75 75 75 76 75 75 74 75 74 74 74 74 74 74 75 75 74 74 74 74 74 75 74 74 75 75 75 75 75 75 75 75 74 74 73 75 71 72 72 69 69 70 71 75 73 73 73 73 73 73 73 73 73 72 73 73 73
68 68 70 70 72 71 69 73 74 73 74 74 75 76 76 76 76 76 76 76 76 76 76 76 76 75 76 75 75 75 75 75 75 75 75 75 75 74 74 74 74 74 74 74 74 74 74 73 74 74 74 74 75 75 75 75 75 75 75 74 74 74 74 74 72 72 72 71 69 68 72 74 73 73 73 73 73 73 73 73 73 72 72 73 73
68 69 69 70 71 71 70 70 72 72 73 71 73 75 76 76 76 76 76 76 76 76 76 76 76 76 76 76 75 76 75 75 75 74 75 75 75 74 74 74 74 74 74 74 74 74 74 74 74 74 74 74 75 75 75 75 75 75 75 75 75 74 75 71 74 74 71 69 71 70 74 74 74 73 73 73 73 73 73 74 72 72 72 72 73
68 69 70 70 70 71 71 71 72 72 71 72 72 74 75 77 77 76 76 76 76 76 76 76 76 76 76 76 75 74 75 74 75 74 74 75 76 75 75 74 75 75 74 74 74 74 75 74 74 74 74 74 75 75 75 75 75 75 75 75 75 74 73 74 74 73 72 70 71 70 75 74 73 73 73 72 72 72 72 72 72 72 72 72 72
67 68 70 70 70 71 72 72 71 72 72 72 72 72 74 75 74 76 76 77 76 76 77 75 75 75 75 75 75 73 73 74 75 72 75 75 76 74 75 74 75 75 75 75 75 76 76 76 75 76 75 74 75 75 75 75 76 75 75 74 75 73 74 74 74 72 72 70 73 73 74 74 74 72 72 71 72 72 71 72 72 72 72 72 72
67 68 69 70 71 71 72 71 71 72 71 72 71 72 73 73 74 74 74 74 74 75 74 75 74 75 74 74 74 73 73 74 75 75 75 72 74 74 74 74 75 75 75 75 74 74 75 76 76 75 76 74 75 72 72 73 76 75 76 76 70 71 74 74 74 72 72 73 73 74 74 74 74 73 72 72 73 72 72 72 72 72 72 72 71
67 67 68 70 70 70 71 72 72 72 72 71 71 71 72 72 72 72 72 73 74 74 74 75 74 74 74 74 72 73 73 74 74 73 73 74 75 74 72 74 75 75 72 75 75 74 75 75 75 75 75 74 71 69 69 70 70 70 70 69 67 69 69 70 71 72 71 72 74 74 73 74 74 73 72 72 72 72 72 71 72 73 73 72 72
67 67 69 69 70 71 71 72 72 72 72 71 71 69 72 70 71 70 72 72 72 73 73 74 73 74 74 73 72 73 72 73 73 73 72 73 73 74 74 74 75 75 73 75 73 73 73 74 74 74 72 71 71 70 70 69 67 66 66 67 67 68 65 66 68 70 73 74 74 75 74 74 74 72 72 71 72 73 72 72 72 72 73 73 71
66 67 68 70 70 70 71 71 72 72 72 71 70 71 72 70 72 71 72 72 72 72 72 73 73 73 73 72 73 73 72 72 72 72 71 72 72 72 73 73 73 74 73 73 72 74 72 72 72 72 74 74 70 71 70 69 66 65 63 67 66 67 66 65 64 68 72 73 76 76 75 74 74 72 72 72 72 73 73 72 73 72 72 72 72
65 66 67 70 70 71 72 72 71 72 72 73 72 72 71 72 73 72 72 72 72 72 72 71 73 73 73 74 71 70 70 70 70 71 70 71 71 72 72 73 74 73 73 72 73 72 71 70 76 74 74 72 74 70 71 68 68 64 64 64 66 65 65 65 64 65 67 71 76 76 75 74 74 73 72 73 72 73 72 72 73 72 72 71 72
65 65 65 68 70 69 71 72 72 72 73 73 73 71 72 72 72 72 72 71 72 71 70 71 73 72 74 74 73 72 69 69 72 71 70 71 72 74 74 72 73 71 74 73 71 70 70 75 74 74 72 72 68 70 68 66 65 66 63 63 64 64 64 64 65 66 64 67 73 75 75 75 74 73 73 73 73 73 72 72 73 72 73 73 72
65 65 65 66 70 70 70 71 71 73 72 72 72 72 72 73 72 72 71 73 72 72 71 73 73 73 73 75 74 70 69 70 70 70 73 72 73 73 72 72 73 73 73 71 72 72 70 75 75 73 73 72 72 70 72 68 67 66 63 62 62 63 63 63 64 63 63 65 66 74 76 75 74 74 74 73 73 73 73 72 73 73 73 72 72
64 65 65 66 67 70 70 70 71 72 72 71 72 72 73 72 73 73 73 74 72 72 73 71 72 72 72 74 72 71 70 68 70 72 71 73 73 74 73 73 72 72 72 73 72 71 70 74 73 74 73 73 71 72 72 70 64 64 63 63 61 58 63 61 63 61 64 63 66 74 76 75 74 74 73 73 73 74 73 72 72 73 73 72 72
66 65 65 66 67 66 68 71 71 72 72 71 71 72 73 72 73 73 74 73 72 73 73 72 71 70 72 74 74 74 73 70 72 72 72 72 73 74 74 74 72 71 73 73 73 73 72 75 75 72 73 72 73 71 71 71 67 64 64 62 60 62 62 63 60 60 60 62 64 68 74 76 75 74 74 73 74 73 73 73 73 72 72 72 72
66 66 67 68 66 66 66 68 70 72 72 71 72 72 73 72 73 73 73 73 74 72 72 72 71 70 72 73 74 73 74 73 74 74 73 73 73 73 73 74 73 73 73 73 74 74 73 74 75 76 74 73 73 73 72 70 66 63 65 62 64 62 60 60 56 57 60 63 65 66 70 73 76 75 75 74 74 73 74 73 73 72 72 73 72
66 66 67 68 66 66 66 68 69 72 73 71 71 72 72 72 72 73 73 73 73 73 72 71 72 73 74 73 74 75 76 74 75 74 73 73 73 75 74 74 74 74 74 76 76 75 73 72 75 75 74 74 73 72 72 69 65 65 64 63 62 62 61 61 61 59 56 60 62 64 67 70 73 75 75 74 74 74 74 74 73 73 73 72 73
67 67 67 68 67 67 67 67 68 70 73 71 72 71 72 72 72 72 72 72 72 72 72 71 72 72 73 74 74 75 75 74 75 75 73 72 74 75 74 73 74 75 75 76 73 72 71 72 71 72 72 72 71 73 71 70 65 64 65 64 64 63 60 58 58 59 59 60 61 65 67 68 72 74 74 75 74 74 74 73 73 73 73 73 73
66 66 67 68 68 67 67 67 69 69 72 71 71 72 71 71 70 72 71 73 72 71 70 71 71 71 72 72 75 76 76 76 76 74 72 72 73 74 74 73 75 76 74 75 74 73 73 71 72 72 73 71 72 71 72 70 67 66 66 65 64 62 63 60 60 61 60 63 63 63 68 68 71 73 73 75 73 75 74 74 74 73 73 73 73
68 69 68 69 68 69 69 67 68 70 71 71 72 72 71 71 70 71 71 73 70 71 70 69 70 70 71 72 76 76 76 76 76 75 73 72 73 73 73 75 77 75 75 75 76 73 74 73 71 71 72 72 73 71 72 70 67 66 66 65 65 64 61 61 62 59 58 63 63 65 68 69 71 71 69 71 73 75 75 74 74 74 73 74 74
69 69 69 70 70 69 70 67 67 69 70 71 71 72 72 72 72 70 70 72 70 70 70 70 70 70 70 70 74 76 76 76 76 76 74 73 73 74 74 75 77 75 76 75 74 73 73 71 74 74 72 72 72 71 71 71 67 66 65 64 63 64 62 64 62 62 62 64 63 61 64 68 71 70 73 71 72 74 75 75 75 75 74 74 74
70 70 71 70 70 70 70 69 69 67 70 71 72 71 72 72 71 70 71 70 70 69 69 70 71 70 70 71 73 75 76 75 76 75 74 73 73 74 75 76 77 76 76 75 74 74 74 73 73 75 74 74 71 72 71 67 66 66 65 62 65 61 61 63 63 64 63 64 65 65 65 63 66 65 66 68 68 69 73 75 76 74 74 74 74
68 70 71 72 72 71 71 71 70 70 69 71 72 72 72 73 71 72 70 71 72 70 70 71 70 71 69 72 75 75 74 75 75 75 75 72 72 74 76 77 77 76 76 75 74 75 75 75 74 74 76 75 74 73 73 69 68 67 64 63 65 66 65 62 63 61 62 61 62 63 59 65 63 65 66 67 66 71 71 73 73 72 75 75 74
68 70 72 72 72 72 72 72 72 70 71 71 71 70 71 70 69 70 69 70 71 70 72 70 71 70 70 72 75 76 74 75 75 75 75 74 73 75 76 77 76 76 76 75 73 73 75 76 76 75 76 74 74 74 72 69 67 66 66 65 65 65 65 63 62 62 64 63 64 63 59 61 63 64 62 64 64 64 68 71 72 71 72 75 75
69 69 70 72 72 72 72 72 72 73 71 70 69 69 68 69 70 68 68 68 70 71 71 71 71 70 72 73 76 74 74 75 75 75 75 76 76 76 77 77 77 76 76 75 75 75 76 76 76 76 74 74 73 74 71 68 67 65 67 65 65 66 64 64 62 59 60 60 61 62 61 61 62 63 64 63 64 63 65 67 68 70 72 73 74
69 69 70 71 72 72 72 72 72 72 71 70 70 69 70 69 69 70 69 69 70 70 71 72 71 71 73 75 76 74 74 75 75 76 77 77 77 76 77 77 77 76 77 77 77 76 76 75 74 73 74 72 71 68 68 68 66 63 62 62 61 62 64 62 57 57 59 58 59 62 63 59 58 59 62 64 64 64 64 66 68 68 69 69 70
69 69 70 70 72 72 72 73 72 72 72 72 72 71 72 72 71 70 70 68 71 72 70 71 72 70 72 76 76 74 75 75 75 76 77 78 77 77 77 77 78 76 76 77 77 77 77 75 74 71 70 71 70 70 71 69 63 63 64 63 58 59 63 59 58 58 55 57 57 57 60 58 61 64 63 62 60 63 62 66 69 70 70 68 67
70 70 70 70 70 72 72 73 73 73 73 73 73 73 74 74 74 73 72 70 70 72 73 72 73 72 71 74 76 75 75 74 74 75 77 78 78 77 76 76 78 77 77 76 77 77 77 75 72 72 72 69 67 68 68 70 67 64 62 59 59 55 57 60 60 59 57 55 55 54 59 61 61 63 62 59 56 62 63 66 69 69 70 70 68
69 70 69 70 70 71 72 73 73 74 74 74 74 75 74 74 74 74 74 73 73 73 73 72 73 73 71 73 74 75 75 74 74 76 76 77 78 77 77 76 77 78 77 76 77 75 76 75 73 73 72 70 66 66 68 67 68 66 62 56 55 54 56 57 55 60 55 54 55 55 59 60 59 64 61 61 60 63 61 63 68 69 70 69 68
69 70 69 69 70 71 73 74 73 74 74 74 75 75 74 74 73 73 72 72 72 71 71 71 70 72 69 68 73 74 73 74 74 76 76 76 78 77 78 76 76 76 77 76 76 76 76 75 73 72 71 72 71 67 65 68 66 68 68 63 67 62 57 59 57 59 62 56 59 57 60 59 60 63 64 63 62 61 62 63 66 67 67 67 66
69 69 70 70 71 72 73 74 74 74 74 75 76 75 75 74 74 72 71 71 71 72 72 71 70 72 71 70 71 74 75 73 73 75 76 76 77 78 78 77 76 76 77 77 76 74 73 73 73 73 72 72 72 69 66 65 68 67 66 62 61 62 61 61 58 60 59 60 58 56 57 59 59 60 61 60 58 59 62 63 62 62 65 65 65
69 69 69 70 72 73 74 74 74 74 75 75 75 75 75 74 74 73 72 72 71 72 73 73 73 73 73 71 71 72 75 75 73 75 75 75 76 77 78 78 76 76 77 76 75 73 73 73 74 74 74 73 72 69 66 62 65 65 64 63 63 64 65 62 62 60 59 59 59 57 57 57 59 59 58 57 57 58 63 64 64 64 63 65 64
68 69 70 71 72 74 74 74 74 75 75 76 75 75 75 75 74 73 72 72 72 71 73 73 73 74 74 74 74 73 74 76 75 74 75 76 75 76 77 77 77 76 77 75 73 73 74 74 74 74 74 73 73 71 69 67 65 63 64 65 64 64 62 61 63 64 61 58 56 58 59 58 58 59 60 58 56 60 61 62 63 63 64 65 65
68 70 70 71 72 74 75 75 75 74 75 76 76 76 75 75 74 74 74 73 73 72 72 73 74 75 75 76 75 74 73 74 76 75 76 76 75 76 75 76 76 74 74 73 73 73 74 74 74 74 74 73 72 71 68 68 66 63 65 65 65 63 63 62 60 60 61 63 59 57 57 58 59 59 60 60 61 58 59 61 63 62 63 64 64
69 69 70 71 71 73 75 75 75 75 75 75 75 75 75 74 74 75 74 74 74 73 73 74 75 75 75 75 75 75 75 73 72 75 76 76 76 76 74 75 76 75 75 74 74 72 72 73 73 75 74 73 72 71 70 70 67 65 66 65 65 63 64 62 62 59 60 61 59 56 53 54 53 57 62 60 62 60 62 62 61 60 64 64 64